Wind_Speed
1 2 2 8 8 4 11 12 13 16 11 15 17 18 19 13 5 6 17 19 22 21 18 19 18 19 19 18 17 16 14 13 13 13 13 13 14 15 14 13 14 14 16 15 15 17 18 19 19
2 7 8 13 7 7 10 11 14 17 12 10 14 15 16 14 15 24 22 20 21 22 21 20 20 19 18 15 15 13 13 13 13 13 13 13 12 12 13 14 15 15 15 16 18 19 18 17 17
8 9 15 3 8 12 10 9 12 7 8 3 8 14 10 9 14 12 21 23 20 20 20 21 20 18 17 15 13 12 13 13 12 11 11 10 11 14 12 14 16 15 17 17 16 14 15 14 14
3 8 11 11 13 11 11 10 10 10 12 15 15 13 9 13 13 23 24 24 22 20 19 21 19 17 16 15 13 13 13 12 10 12 12 12 13 12 12 13 14 15 15 14 13 13 11 12 12
7 14 7 12 14 11 10 10 12 13 14 10 13 14 8 24 27 25 25 26 26 25 20 18 16 16 15 14 13 13 11 10 10 12 10 11 11 11 9 11 12 11 11 11 11 10 10 10 10
15 11 6 13 12 13 8 8 22 11 18 15 23 15 8 22 25 23 26 27 19 21 19 15 15 14 14 12 12 11 10 10 11 12 10 9 10 9 9 10 9 8 7 7 7 7 7 7 7
19 2 5 8 13 13 8 10 16 13 9 8 15 8 10 21 23 23 26 26 26 20 18 17 16 15 13 11 10 9 10 10 10 9 9 9 10 9 9 7 7 6 6 4 4 4 4 5 5
14 10 11 11 13 13 8 11 18 14 11 11 14 8 7 23 23 25 26 25 18 22 18 18 17 11 11 9 10 10 9 9 9 9 10 9 8 7 8 8 6 5 5 4 4 4 2 3 6
11 3 9 13 13 13 10 11 8 17 14 9 3 19 22 23 23 22 25 21 23 20 18 15 14 13 11 11 12 11 13 12 10 12 13 13 6 6 8 3 4 4 4 4 4 4 4 4 6
10 12 10 10 12 9 7 13 11 13 13 16 19 22 24 22 21 21 21 23 25 26 18 18 16 12 10 8 12 6 5 5 5 4 5 6 4 3 3 7 7 8 8 9 9 8 6 7 7
18 15 12 13 12 12 13 10 7 9 15 13 20 26 22 20 15 18 20 20 24 22 14 18 12 11 9 10 11 9 5 5 4 7 7 5 4 2 5 8 6 7 10 9 10 7 8 5 7
14 15 14 13 10 10 14 11 9 17 17 18 21 23 22 19 19 14 13 19 19 18 16 13 10 10 9 11 9 7 5 4 5 1 5 4 7 5 5 8 6 6 2 5 6 9 4 6 8
14 12 15 13 12 12 11 14 15 18 18 20 22 20 20 18 16 15 14 17 20 18 19 15 13 16 13 9 2 8 7 4 3 5 5 5 5 4 2 5 4 5 5 8 8 7 6 6 10
15 13 15 16 14 14 15 13 13 15 18 20 19 18 18 17 17 15 15 17 17 22 19 16 11 13 10 5 7 6 3 3 2 2 2 5 5 8 8 6 5 5 4 6 6 8 7 8 7
13 13 14 13 11 7 17 12 14 15 16 18 15 15 15 16 16 16 17 19 21 20 20 18 14 11 10 8 8 3 2 1 1 2 6 5 7 10 8 6 6 7 6 5 7 8 7 9 8
18 21 15 13 9 7 10 12 14 16 16 16 17 16 16 16 16 16 17 18 19 18 19 17 14 13 11 7 7 5 6 2 2 3 5 7 8 9 8 7 6 8 12 5 4 4 6 7 7
1 4 15 12 3 5 9 13 15 16 15 16 16 16 16 17 17 16 18 19 21 20 21 20 17 14 13 10 8 7 8 4 4 5 6 8 9 8 9 7 9 13 10 5 6 5 6 6 5
25 24 12 15 11 6 4 15 16 16 14 15 16 15 15 16 16 17 18 19 20 21 20 20 19 17 16 13 13 10 7 7 7 7 8 9 7 10 10 9 10 12 8 8 6 8 5 4 4
11 3 12 10 8 6 2 17 14 17 14 15 15 16 16 16 16 17 18 19 19 21 24 23 22 20 18 14 13 12 11 10 10 11 13 10 8 8 10 9 8 8 8 8 8 6 6 2 6
4 6 8 8 8 8 10 7 17 17 15 16 16 17 16 16 17 18 19 20 21 22 22 24 24 27 25 20 19 16 13 11 11 11 12 11 9 9 8 10 8 7 4 8 4 5 4 7 8
13 13 12 6 5 10 5 10 14 18 17 15 16 16 17 18 19 20 21 21 20 21 23 24 25 26 29 25 19 18 20 18 15 14 12 10 9 9 9 9 8 8 6 5 10 6 7 8 10
16 7 4 4 9 4 9 2 14 16 15 16 18 18 19 19 20 21 22 22 22 22 21 22 23 24 24 26 23 19 18 14 12 12 10 9 9 9 9 10 11 10 7 10 10 10 12 12 14
10 9 8 6 8 11 14 8 15 16 16 17 20 21 20 22 22 23 23 23 22 21 21 21 22 22 23 23 25 21 20 16 13 12 12 12 13 13 10 11 12 12 10 10 13 14 15 14 16
18 6 7 11 11 12 12 12 13 15 16 17 20 24 23 23 23 23 23 23 23 22 21 20 21 21 21 21 21 25 21 16 14 11 12 11 11 11 13 13 13 14 16 13 13 14 17 19 21
13 11 10 11 11 9 17 10 4 15 12 17 21 24 26 25 25 25 26 26 24 25 23 22 22 22 21 20 20 20 22 22 19 17 14 15 14 13 15 13 18 14 15 18 19 22 24 25 25
19 20 13 15 12 11 7 7 6 10 19 12 21 26 26 27 27 27 28 27 27 26 25 24 24 24 23 22 21 21 21 20 20 19 16 15 14 14 16 18 16 15 14 16 21 21 18 22 25
18 21 23 22 17 8 14 12 16 10 11 10 14 22 29 28 28 28 28 27 26 25 26 25 25 24 22 22 22 22 22 22 19 19 16 15 16 15 19 16 16 13 13 15 18 19 25 26 27
26 20 21 17 15 13 9 16 10 16 15 13 14 20 26 30 28 27 27 27 26 25 24 23 23 23 21 20 20 19 19 19 20 20 20 18 17 17 17 18 14 12 16 18 21 21 19 19 19
22 20 23 20 15 11 12 12 12 14 12 7 9 22 24 28 28 26 26 25 24 23 22 22 21 21 20 18 18 17 14 14 13 12 13 13 17 18 17 15 12 14 17 17 13 13 16 18 20
23 22 25 15 18 15 11 3 19 15 8 7 12 18 23 24 25 24 24 23 24 23 22 21 21 20 19 16 15 15 13 13 11 13 13 18 17 11 7 9 11 10 9 13 15 15 17 18 19
Wind_Direction
150 194 222 254 250 164 52 122 45 66 83 38 61 67 81 62 45 121 145 138 141 136 132 138 136 132 126 120 118 115 111 111 109 107 104 101 98 100 105 103 106 112 106 104 102 99 98 91 87
171 236 251 263 262 88 59 56 74 52 66 80 66 83 81 76 91 118 129 137 134 131 131 137 133 133 130 121 117 115 114 111 111 106 104 105 105 99 98 97 101 104 104 103 101 98 95 89 85
175 245 271 213 10 34 82 75 95 137 109 112 95 72 59 103 104 118 138 134 127 126 130 134 131 132 129 124 120 114 112 113 113 111 108 108 104 96 98 102 101 103 103 105 102 88 93 91 85
240 249 247 51 68 46 83 81 123 115 85 97 122 77 72 115 119 129 138 130 120 117 125 128 130 132 127 124 122 119 118 115 110 112 107 110 103 103 98 105 108 108 104 103 97 95 90 91 86
272 267 251 84 75 67 72 64 37 121 78 73 90 98 70 103 129 132 137 135 127 130 135 130 132 130 129 127 124 124 124 120 122 123 121 116 117 113 106 102 109 105 96 98 90 85 85 88 84
283 271 42 82 81 89 79 114 109 75 84 103 102 100 85 123 127 125 135 128 124 130 126 128 132 133 130 130 129 130 128 125 127 131 126 121 114 108 99 97 103 103 96 98 92 82 80 80 82
235 133 44 88 102 76 87 134 115 105 104 98 124 97 122 131 133 136 134 139 140 132 131 130 131 132 131 129 128 127 122 118 116 122 119 111 102 93 85 81 83 83 89 87 85 78 81 77 67
297 305 59 44 83 97 102 84 93 118 106 115 128 140 131 138 139 144 142 136 140 135 134 127 116 107 125 121 135 127 120 111 106 108 105 99 82 77 64 59 49 57 54 58 61 54 53 66 48
284 317 44 30 67 104 139 108 67 109 111 89 57 143 144 140 140 144 151 144 149 142 144 138 136 139 125 126 117 116 103 94 97 98 80 74 65 49 44 32 18 16 27 34 42 44 42 66 28
220 68 63 49 85 107 85 111 134 134 114 106 106 124 142 145 146 148 159 159 160 155 157 149 146 119 124 131 105 103 107 93 118 110 90 98 127 123 94 26 30 25 13 22 9 24 35 42 326
38 73 73 73 88 96 108 111 161 131 138 146 141 141 145 148 149 159 161 176 170 165 167 156 140 138 153 152 160 122 113 117 98 113 91 117 105 344 24 340 357 344 354 335 340 318 351 315 316
86 70 81 96 113 110 90 110 91 56 87 132 142 147 150 156 163 161 163 164 160 174 180 165 154 155 195 163 147 131 128 99 84 58 92 99 53 30 21 353 353 340 327 311 310 338 321 330 308
99 92 91 92 91 101 111 83 88 94 110 128 139 149 157 160 166 165 167 161 163 168 171 175 177 185 171 141 77 75 113 87 93 54 5 39 31 31 26 333 355 330 329 316 323 328 313 328 321
109 118 114 106 118 125 116 128 106 108 123 131 146 153 162 169 173 172 173 172 176 170 176 179 182 183 173 178 165 139 150 59 93 77 310 10 15 352 357 352 317 332 337 288 297 280 310 321 318
137 138 133 138 132 151 145 117 105 133 138 140 147 156 167 176 180 182 179 175 176 184 182 185 187 187 188 184 174 173 194 185 76 313 347 344 359 327 345 328 343 313 317 351 335 315 304 313 320
190 177 142 133 180 145 249 112 139 151 152 153 159 166 175 183 189 184 183 185 187 187 185 191 193 201 202 203 196 198 220 218 272 320 330 326 340 322 322 312 301 268 277 276 253 309 324 324 314
10 357 185 130 156 131 230 124 153 170 163 160 168 170 175 180 190 188 188 190 191 190 193 197 199 202 213 221 214 228 234 256 285 305 324 313 322 311 331 321 313 290 294 289 270 279 297 303 317
135 239 123 130 153 233 129 112 155 176 175 164 167 170 177 178 186 186 188 191 191 196 201 203 206 206 213 216 234 228 240 256 272 280 298 304 306 323 322 329 317 317 289 284 275 258 269 263 295
232 29 131 115 112 239 54 134 158 172 182 171 171 172 177 180 183 185 187 190 193 198 203 206 210 214 219 223 225 232 239 253 264 273 285 298 305 301 307 325 316 317 311 264 256 272 298 286 288
252 199 134 93 122 273 152 180 152 172 188 173 181 176 179 174 171 181 187 191 195 201 207 211 214 218 223 226 226 225 240 252 263 266 271 289 292 294 305 303 317 306 287 311 252 239 245 281 277
216 210 135 95 167 212 250 179 167 171 182 178 179 182 184 180 175 183 188 193 197 202 207 212 217 219 225 222 234 236 243 251 261 272 284 290 285 284 299 300 299 284 301 291 297 276 264 282 287
217 225 73 228 243 244 183 306 183 170 184 181 182 183 185 186 187 188 190 194 198 203 206 208 215 219 223 226 221 233 234 247 255 266 269 259 271 290 288 293 295 284 254 250 264 268 265 261 282
251 148 199 239 259 268 186 243 155 173 187 186 187 184 188 186 190 190 194 199 199 201 202 206 212 215 214 228 225 227 241 243 257 260 264 272 270 293 285 274 278 289 275 278 278 262 272 278 278
236 185 230 248 248 247 247 243 173 173 186 192 189 184 187 187 191 193 194 198 200 201 203 205 210 216 218 218 230 225 222 240 235 246 253 266 275 277 275 273 285 285 288 284 288 283 286 287 280
232 211 221 222 225 244 201 213 226 152 179 186 187 191 184 188 191 193 192 195 199 201 203 204 212 217 218 221 227 231 234 238 241 242 255 264 271 277 295 271 291 281 282 287 286 291 289 289 286
214 220 226 209 221 184 203 222 203 146 160 171 188 192 191 187 190 193 196 198 200 201 203 204 213 220 219 225 230 234 239 244 250 258 254 251 265 276 292 274 285 272 277 282 287 290 294 301 291
196 223 244 249 229 259 177 201 229 152 185 189 198 192 191 194 193 196 198 200 201 203 205 207 211 222 218 223 233 239 241 243 240 252 247 262 270 272 271 275 276 281 284 289 290 297 289 290 293
232 204 227 245 261 239 180 174 216 184 206 194 189 208 195 195 198 195 200 200 203 205 206 208 212 216 218 217 224 233 239 244 248 253 255 259 266 270 268 275 273 277 277 280 285 295 299 301 309
210 226 212 237 237 233 243 187 178 171 188 152 214 202 198 197 201 200 201 203 206 205 205 207 209 213 215 218 219 224 229 239 248 251 262 261 255 261 262 277 284 293 295 302 312 310 319 309 308
205 216 203 224 212 257 275 308 171 156 173 194 158 183 191 197 200 200 204 203 204 205 205 205 207 209 212 212 211 215 221 227 237 247 242 250 263 284 309 292 298 308 324 318 315 313 308 311 309
Height
1500 1498 1503 1502 1496 1476 1489 1491 1485 1496 1500 1506 1508 1506 1521 1526 1530 1545 1544 1545 1548 1550 1554 1556 1557 1558 1558 1559 1560 1561 1562 1562 1562 1563 1563 1564 1565 1565 1565 1566 1566 1567 1567 1568 1568 1568 1569 1570 1570
1504 1504 1503 1494 1483 1478 1493 1483 1494 1504 1510 1511 1514 1518 1521 1533 1534 1540 1548 1551 1551 1552 1553 1557 1559 1560 1561 1562 1563 1564 1564 1564 1565 1566 1566 1566 1567 1567 1567 1568 1568 1568 1569 1569 1570 1570 1571 1571 1572
1500 1503 1500 1475 1481 1491 1498 1495 1500 1510 1513 1514 1517 1521 1529 1538 1541 1544 1549 1552 1552 1555 1558 1560 1562 1563 1564 1565 1565 1566 1566 1567 1567 1567 1567 1568 1569 1569 1569 1570 1571 1571 1571 1571 1572 1573 1573 1573 1573
1506 1502 1493 1484 1499 1494 1493 1497 1502 1507 1509 1518 1518 1530 1538 1542 1544 1547 1551 1553 1556 1558 1562 1563 1565 1565 1566 1567 1568 1568 1568 1568 1569 1568 1569 1570 1570 1571 1571 1571 1572 1573 1573 1573 1574 1574 1575 1575 1575
1505 1498 1486 1489 1499 1499 1500 1503 1509 1507 1515 1521 1521 1535 1539 1545 1547 1550 1553 1555 1558 1560 1564 1565 1567 1567 1568 1569 1569 1570 1570 1570 1571 1571 1571 1571 1572 1572 1573 1574 1574 1575 1575 1575 1575 1576 1576 1576 1576
1504 1485 1483 1492 1499 1499 1503 1506 1510 1514 1517 1521 1528 1537 1545 1549 1551 1554 1556 1560 1564 1564 1565 1568 1568 1570 1571 1571 1571 1572 1572 1572 1572 1573 1573 1574 1574 1575 1575 1576 1576 1576 1577 1577 1577 1577 1577 1577 1577
1497 1484 1490 1488 1494 1504 1505 1504 1505 1519 1525 1526 1531 1540 1548 1551 1554 1556 1558 1561 1564 1565 1566 1568 1570 1572 1573 1574 1575 1575 1575 1575 1575 1575 1576 1576 1577 1578 1578 1578 1578 1578 1578 1578 1578 1578 1578 1578 1578
1493 1477 1482 1484 1491 1507 1507 1508 1509 1520 1526 1529 1532 1542 1548 1551 1554 1556 1559 1563 1566 1567 1570 1571 1572 1575 1576 1577 1578 1578 1577 1578 1577 1578 1578 1579 1580 1580 1580 1580 1580 1580 1579 1578 1579 1579 1579 1579 1579
1492 1481 1494 1493 1493 1505 1508 1511 1517 1521 1530 1533 1535 1539 1547 1552 1556 1559 1561 1564 1566 1568 1571 1573 1575 1577 1578 1578 1579 1579 1578 1580 1581 1581 1581 1582 1584 1583 1582 1581 1582 1581 1580 1580 1579 1579 1579 1579 1578
1486 1483 1494 1492 1497 1505 1509 1510 1518 1519 1529 1537 1539 1544 1550 1554 1557 1561 1564 1565 1567 1568 1570 1574 1575 1579 1582 1583 1581 1583 1583 1584 1586 1585 1583 1585 1586 1585 1586 1584 1583 1583 1582 1581 1580 1580 1579 1579 1579
1481 1489 1494 1499 1503 1505 1511 1515 1516 1516 1520 1535 1541 1546 1550 1554 1558 1562 1565 1566 1569 1573 1575 1577 1578 1581 1584 1585 1584 1585 1586 1586 1587 1585 1584 1585 1586 1585 1585 1585 1584 1583 1583 1580 1580 1579 1579 1581 1580
1491 1495 1499 1504 1507 1507 1512 1514 1517 1516 1522 1532 1541 1546 1550 1555 1558 1562 1565 1569 1571 1576 1578 1579 1582 1584 1583 1584 1585 1585 1587 1588 1586 1586 1585 1586 1585 1588 1587 1587 1587 1585 1584 1583 1582 1579 1578 1581 1579
1494 1499 1503 1507 1510 1513 1513 1517 1522 1527 1532 1537 1543 1548 1552 1556 1560 1562 1566 1568 1572 1574 1578 1581 1582 1582 1584 1585 1584 1582 1588 1588 1589 1589 1588 1589 1588 1587 1586 1587 1586 1585 1584 1583 1583 1582 1581 1580 1578
1494 1500 1504 1509 1513 1514 1516 1520 1522 1532 1536 1541 1545 1549 1553 1556 1559 1562 1565 1568 1572 1575 1577 1580 1581 1582 1584 1585 1585 1587 1589 1590 1590 1590 1588 1587 1587 1586 1585 1585 1586 1585 1584 1584 1583 1581 1580 1580 1578
1496 1497 1500 1505 1507 1510 1510 1514 1525 1533 1537 1541 1546 1550 1553 1555 1558 1561 1564 1567 1571 1573 1576 1580 1582 1583 1584 1584 1586 1587 1590 1590 1589 1589 1588 1587 1587 1588 1585 1586 1585 1585 1583 1581 1581 1580 1580 1579 1578
1485 1483 1496 1500 1501 1508 1505 1522 1526 1532 1536 1540 1544 1548 1552 1555 1557 1560 1563 1567 1570 1572 1576 1579 1581 1583 1583 1584 1586 1588 1589 1589 1590 1590 1589 1588 1587 1586 1584 1585 1585 1581 1580 1580 1580 1581 1580 1578 1577
1489 1521 1504 1498 1499 1501 1499 1516 1522 1528 1531 1536 1541 1545 1548 1552 1555 1559 1562 1564 1567 1570 1573 1576 1579 1582 1583 1584 1585 1587 1587 1587 1590 1590 1589 1589 1587 1585 1584 1585 1584 1581 1579 1578 1578 1578 1578 1577 1576
1517 1505 1484 1495 1497 1499 1496 1509 1519 1524 1526 1530 1535 1541 1545 1548 1552 1555 1558 1561 1565 1569 1572 1574 1576 1578 1580 1582 1583 1585 1587 1587 1588 1588 1588 1586 1586 1584 1584 1585 1583 1580 1580 1579 1579 1577 1577 1575 1575
1475 1485 1486 1486 1492 1494 1492 1500 1511 1519 1521 1525 1530 1535 1540 1544 1548 1553 1556 1560 1563 1566 1568 1570 1573 1575 1577 1580 1582 1584 1585 1587 1587 1587 1586 1585 1584 1584 1582 1583 1582 1580 1578 1577 1576 1576 1576 1576 1575
1477 1483 1485 1488 1489 1494 1492 1496 1500 1512 1515 1519 1524 1530 1535 1539 1544 1550 1554 1557 1560 1562 1565 1567 1569 1571 1573 1576 1579 1582 1584 1585 1586 1585 1584 1583 1583 1583 1581 1581 1580 1579 1578 1575 1574 1575 1575 1575 1574
1478 1480 1485 1491 1489 1488 1490 1496 1495 1502 1509 1513 1519 1525 1530 1535 1540 1546 1550 1554 1557 1560 1561 1563 1565 1567 1570 1573 1576 1579 1580 1581 1582 1583 1583 1583 1582 1581 1580 1580 1579 1577 1576 1577 1574 1574 1574 1574 1573
1483 1473 1482 1488 1494 1498 1484 1519 1495 1493 1501 1508 1513 1519 1525 1530 1536 1541 1546 1550 1552 1555 1558 1560 1562 1564 1567 1569 1573 1576 1578 1580 1581 1582 1582 1582 1581 1580 1579 1579 1578 1576 1575 1576 1574 1572 1571 1571 1570
1478 1471 1481 1486 1492 1489 1486 1498 1487 1486 1498 1499 1505 1512 1518 1525 1530 1536 1541 1545 1549 1552 1555 1557 1558 1561 1563 1566 1569 1572 1574 1577 1579 1580 1580 1579 1578 1577 1576 1576 1575 1574 1573 1573 1571 1570 1569 1568 1567
1472 1482 1485 1486 1487 1501 1484 1486 1489 1485 1488 1491 1497 1504 1512 1519 1525 1531 1536 1541 1545 1549 1552 1555 1555 1557 1560 1564 1565 1568 1571 1573 1575 1577 1577 1577 1577 1576 1575 1573 1573 1571 1570 1569 1567 1565 1564 1562 1561
1475 1486 1509 1513 1506 1501 1469 1486 1481 1470 1475 1480 1488 1497 1504 1512 1519 1525 1531 1536 1540 1544 1548 1552 1553 1554 1556 1559 1562 1564 1566 1568 1569 1571 1573 1574 1574 1573 1572 1568 1568 1568 1566 1564 1563 1561 1559 1558 1555
1481 1482 1494 1522 1505 1489 1475 1495 1477 1463 1469 1477 1481 1489 1497 1505 1512 1518 1524 1530 1535 1539 1543 1547 1549 1550 1553 1555 1558 1561 1563 1564 1566 1567 1568 1570 1571 1570 1569 1565 1565 1562 1562 1560 1557 1555 1555 1553 1549
1475 1486 1467 1476 1467 1483 1476 1472 1462 1463 1470 1475 1478 1481 1489 1497 1504 1512 1518 1525 1530 1535 1539 1543 1546 1547 1550 1552 1554 1556 1558 1560 1563 1563 1565 1565 1566 1566 1565 1562 1560 1560 1560 1557 1555 1553 1549 1547 1544
1461 1467 1487 1472 1499 1499 1472 1478 1478 1470 1468 1466 1474 1477 1482 1491 1498 1505 1513 1519 1525 1530 1535 1539 1543 1545 1547 1549 1551 1553 1554 1556 1557 1559 1560 1561 1561 1560 1560 1559 1557 1557 1555 1553 1550 1548 1545 1543 1540
1464 1465 1467 1463 1469 1483 1492 1474 1448 1459 1459 1465 1469 1474 1479 1485 1492 1499 1506 1514 1521 1526 1531 1535 1539 1542 1544 1546 1549 1551 1553 1555 1556 1557 1558 1557 1556 1556 1555 1555 1554 1553 1551 1550 1547 1546 1544 1541 1539
1447 1458 1458 1474 1484 1462 1462 1459 1437 1449 1458 1466 1468 1473 1478 1484 1489 1495 1502 1509 1516 1522 1526 1531 1535 1538 1541 1544 1546 1548 1550 1553 1555 1555 1553 1553 1554 1553 1553 1552 1551 1550 1549 1548 1546 1544 1542 1538 1535